Location: Unspecified
(0.0000°N, 0.0000°E)
Time: 18:34:40
(UTC+00:00)

DMSP B5D2-3 - Visible Passes

Search period start: 21 October 2019 00:00
Search period end: 31 October 2019 00:00
Orbit: 821 x 839 km, 98.7° (Epoch: 20 October)

Date Brightness Start Highest point End Pass type
(mag) Time Alt. Az. Time Alt. Az. Time Alt. Az.
21 Oct 7.0 18:38:36 10° NNW 18:43:22 32° WNW 18:48:09 10° SW visible
22 Oct 6.1 18:20:13 10° N 18:25:28 52° WNW 18:30:44 10° SSW visible
23 Oct 5.3 18:02:08 10° N 18:07:34 85° WNW 18:13:00 10° SSW visible
24 Oct 7.9 05:04:52 10° ESE 05:08:37 19° ENE 05:12:22 10° NNE visible
25 Oct 8.3 04:49:03 10° E 04:50:44 11° ENE 04:52:25 10° ENE visible
25 Oct 8.0 19:08:49 10° NW 19:11:44 15° WNW 19:14:39 10° WSW visible
26 Oct 7.5 18:49:34 10° NNW 18:53:51 24° WNW 18:58:08 10° SW visible
27 Oct 6.7 18:30:57 10° N 18:35:57 39° WNW 18:40:57 10° SW visible
28 Oct 5.7 18:12:41 10° N 18:18:02 64° WNW 18:23:24 10° SSW visible
29 Oct 7.6 05:14:42 10° SE 05:19:05 26° ENE 05:23:29 10° NNE visible
30 Oct 8.0 04:58:03 10° ESE 05:01:11 16° ENE 05:04:21 10° NE visible
30 Oct 8.2 19:21:09 10° WNW 19:22:12 11° WNW 19:23:13 10° W visible
